Location: Demmingen
(48.6757°N, 10.4375°E)
Time: 21:41:16
(UTC+00:00)

Cosmos 1745 Rocket - Pass Details

Date: 13 August 2024
Orbit: 951 x 998 km, 83.0° (Epoch: 08 September)

Event Time Altitude Azimuth Distance (km) Brightness Sun altitude
Rises 02:05:50 0° 352° (N) 3,640 7.6 -17.2°
Reaches altitude 10° 02:08:21 10° 355° (N) 2,692 6.9 -16.9°
Maximum altitude 02:14:28 67° 78° (ENE) 1,033 4.3 -16.3°
Drops below altitude 10° 02:20:36 10° 161° (SSE) 2,694 6.1 -15.6°
Sets 02:23:08 0° 164° (SSE) 3,642 6.7 -15.3°
